#timestamp,LO_Frequency,Hit 
1504756815.8,286047021.4,P
1504756835.6,286047009.1,N
1504756855.5,286047007.7,N
1504756875.3,286047013.7,N
1504756895.1,286047015.3,P
1504756915.9,286047003.2,P
1504756935.7,286047003.5,N
1504756955.5,286047001.8,N
1504756975.4,286047001.9,N
1504756995.2,286047001.3,N
1504757015.0,286047000.1,N
1504757015.9,286047000.1,N
1504757035.8,286047001.1,N
1504757055.6,286046993.6,N
1504757075.4,286046994.9,N
1504757095.2,286047001.1,N
1504757115.1,286046999.8,N
1504757116.0,286046999.8,N
1504757135.8,286046999.1,N
1504757155.6,286046996.5,N
1504757175.5,286046998.1,N
1504757195.3,286047000.5,N
1504757215.1,286047005.9,N
1504757235.9,286047005.8,N
1504757255.7,286047004.0,N
1504757275.5,286047003.6,N
1504757295.4,286047007.3,N
1504757315.2,286047007.6,N
1504757335.0,286047006.3,N
1504757335.9,286047006.3,N
1504757355.8,286047005.9,N
1504757375.6,286047001.5,N
1504757395.4,286047002.6,N
1504757415.2,286046998.2,N
1504757435.1,286046999.5,N
1504757436.0,286046999.5,N
1504757455.8,286046996.5,N
1504757475.6,286047003.7,N
1504757495.5,286047003.2,N
1504757515.3,286047003.2,N
1504757535.1,286047001.3,N
1504757555.9,286047002.0,N
1504757575.7,286046999.7,N
1504757595.5,286047004.1,N
1504757615.4,286047001.4,N
1504757635.2,286047000.0,N
1504757655.0,286047003.0,N
1504757655.9,286047003.0,N
1504757675.8,286047001.9,N
1504757695.6,286046995.7,N
1504757715.4,286046988.8,P
1504757735.3,286046984.2,N
1504757755.1,286046983.1,N
1504757756.0,286046983.1,N
1504757775.8,286046979.9,N
1504757795.7,286046978.1,N
1504757815.5,286046978.6,N
1504757835.3,286046975.2,P
1504757855.2,286046990.6,N
1504757875.9,286046991.6,N
1504757895.7,286046989.0,N
1504757915.6,286046990.1,N
1504757935.4,286046993.7,N
1504757955.2,286046995.6,N
1504757975.1,286046995.3,N
1504757976.0,286046995.3,N
1504757995.8,286046996.4,N
1504758015.6,286046994.2,N
1504758035.4,286046990.8,N
1504758055.3,286046988.7,N
1504758075.1,286046989.2,N
1504758095.9,286046991.3,N
1504758115.7,286046989.1,N
1504758135.5,286046989.9,N
1504758155.3,286046988.0,N
1504758175.2,286046985.9,P
1504758195.0,286046995.8,N
1504758195.9,286046995.8,N
1504758215.8,286046997.7,N
1504758235.6,286046998.1,N
1504758255.4,286047001.1,N
1504758275.2,286047001.1,N
1504758295.1,286046995.6,N
1504758296.0,286046995.6,N
1504758315.8,286046990.8,N
1504758335.6,286046990.3,N
1504758355.5,286046993.8,N
1504758375.3,286046998.5,N
1504758395.1,286046998.1,N
1504758415.9,286046996.2,N
1504758435.7,286046995.9,N
1504758455.5,286046993.9,N
1504758475.4,286046993.8,N
1504758495.2,286046996.4,N
1504758515.0,286046995.9,N
1504758515.9,286046995.9,N
1504758535.8,286047001.2,N
1504758555.6,286046998.4,N
1504758575.4,286046998.1,N
1504758595.2,286046999.1,N
1504758615.1,286046995.7,N
1504758616.0,286046995.7,N
1504758635.8,286046997.8,N
1504758655.6,286046999.4,N
1504758675.5,286047000.3,N
1504758695.3,286047001.9,N
1504758715.1,286047006.6,N
1504758735.9,286047010.1,P
1504758755.7,286047013.0,N
1504758775.5,286047016.5,N
1504758795.4,286047020.9,N
1504758815.2,286047025.0,P
1504758835.0,286047008.2,N
1504758836.0,286047008.2,N
1504758855.8,286047009.4,N
1504758875.6,286047009.4,N
1504758895.4,286047011.3,N
1504758915.3,286047012.0,N
1504758935.1,286047011.6,N
1504758955.8,286047013.0,N
1504758975.7,286047016.1,P
1504758995.5,286047009.1,P
1504759015.3,286047003.5,N
1504759035.2,286047003.9,N
1504759055.9,286047001.5,N
1504759075.7,286047001.5,N
1504759095.6,286047001.8,N
1504759115.4,286047002.9,N
1504759135.2,286047002.1,N
1504759155.1,286047003.5,N
1504759156.0,286047003.5,N
1504759175.8,286047004.1,N
1504759195.6,286047004.2,N
1504759215.5,286047003.7,N
1504759235.3,286047002.1,N
1504759255.1,286047002.4,N
1504759275.8,286047003.8,N
1504759295.7,286047001.8,N
1504759315.5,286047001.6,N
1504759335.3,286047000.0,N
1504759355.2,286047000.5,N
1504759375.9,286047000.0,N
1504759395.7,286047000.2,N
1504759415.6,286046999.8,N
1504759435.4,286047001.7,N
1504759455.2,286047004.7,N
1504759475.1,286047005.9,N
1504759476.0,286047005.9,N
1504759495.8,286047004.2,N
1504759515.6,286047005.0,N
1504759535.5,286047005.5,N
1504759555.3,286047003.3,N
1504759575.1,286047002.2,N
1504759595.8,286046999.8,N
1504759615.7,286047000.9,N
1504759635.5,286047002.5,N
1504759655.3,286047002.6,N
1504759675.2,286047005.3,N
1504759695.0,286046998.8,N
1504759695.9,286046998.8,N
1504759715.7,286046998.0,N
1504759735.6,286046997.1,N
1504759755.4,286046993.4,N
1504759775.2,286046993.0,N
1504759795.1,286046987.1,P
1504759796.0,286046987.1,N
1504759815.8,286046985.8,N
1504759835.6,286046986.4,N
1504759855.5,286046982.8,N
1504759875.3,286046983.3,N
1504759895.1,286046981.4,P
1504759915.9,286046990.4,P
1504759935.7,286046991.2,N
1504759955.5,286046992.8,N
1504759975.4,286046990.5,N
1504759995.2,286046993.0,N
1504760015.0,286046992.7,N
1504760015.9,286046992.7,N
1504760035.8,286046992.8,N
1504760055.6,286046993.7,N
1504760075.4,286046993.0,N
1504760095.3,286046990.8,N
1504760115.1,286046990.3,P
1504760135.8,286046998.2,P
1504760155.7,286046995.3,N
1504760175.5,286046997.5,N
1504760195.3,286047000.5,N
1504760215.2,286047002.1,N
1504760235.9,286047002.2,N
1504760255.7,286047003.2,N
1504760275.6,286047004.5,N
1504760295.4,286047012.0,N
1504760315.2,286047011.9,N
1504760335.0,286047006.3,N
1504760336.0,286047006.3,N
1504760355.8,286047004.7,N
1504760375.6,286047002.8,N
1504760395.4,286046996.7,N
